Torna al catalogo

CZ-4 DEB

AttivoSSO
NORAD 20883·DEBRIS·🇨🇳 China

Lanciato Sep 3, 1990 da Taiyuan Satellite Launch Center

Loading…

Prossimi Passaggi (prossime 24 ore)

TLE

AggiornatoSource: Space-Track

Epoca: Sep 14, 2026, 11:23 UTC

1 20883U 90081AT  26257.47487839  .00001413  00000-0  47377-3 0  9991
2 20883  98.5961 257.2053 0012703  99.7557  61.4377 14.38795428863174

Traccia CZ-4 DEB in tempo reale con AllMySat

Download on the App Store